Flag for South Korea Weather past 2 weeks in Daegu, South Korea

Now
75 °F

Passing clouds.


Feels Like: 77 °F
Forecast: 67 / 82 °F
Wind: 7 mph from Northwest

Location: Taegu Ab

Current Time: Aug 22, 2014 at 12:19:06 AM

Latest Report: Aug 22, 2014 at 12:00 AM


Visibility: N/A

Pressure: 29.83 "Hg

Humidity: 74%

Dew point: 66 °F

Location of DaeguLocation

Historic Weather in Daegu — Graph

°F

Daegu temperature yesterday

Maximum temperature yesterday: 86 °F (at 1:00 PM)
Minimum temperature yesterday: 73 °F (at 5:00 AM)
Average temperature yesterday: 81 °F

Past Weeks' High & Low Weather Summary

 TemperatureHumidityPressure
High88 °F (Aug 12, 3:00 PM)100% (Aug 15, 8:00 AM)29.92 "Hg (Aug 15, 8:00 AM)
Low66 °F (Aug 14, 9:00 AM)43% (Aug 12, 4:00 PM)29.45 "Hg (Aug 10, 1:00 PM)
Average75 °F83%29.73 "Hg
* Reported Aug 6 11:00 PM — Aug 21 11:00 PM, Daegu, Weather by CustomWeather, © 2014

Note: Actual official high and low records may vary slightly from our data, if they occured in-between our weather recording intervals... More about our weather records

Advertising

Daegu weather history for previous 24 hours

 ConditionsComfort  
Time TempWeatherWind HumidityBarometerVisibility
11:00 PM
Aug 21
77 °FPassing clouds.7 mph69%29.81 "HgN/A
10:00 PM79 °FPassing clouds.9 mph61%29.80 "HgN/A
9:00 PM79 °FPassing clouds.9 mph65%29.77 "HgN/A
8:00 PM81 °FPassing clouds.12 mph62%29.74 "HgN/A
7:00 PM82 °FPartly sunny.13 mph58%29.71 "HgN/A
6:00 PM84 °FPartly sunny.10 mph62%29.68 "HgN/A
5:00 PM86 °FPartly sunny.9 mph62%29.68 "HgN/A
4:00 PM84 °FPartly sunny.5 mph66%29.68 "HgN/A
3:50 PM84 °FPartly sunny.5 mph66%29.68 "HgN/A
3:00 PM86 °FPartly sunny.7 mph62%29.65 "HgN/A
2:00 PM86 °FPartly sunny.8 mph62%29.68 "HgN/A
1:00 PM86 °FBroken clouds.9 mph62%29.68 "HgN/A
12:00 PM84 °FBroken clouds.5 mph70%29.68 "HgN/A
11:00 AM84 °FBroken clouds.7 mph74%29.71 "HgN/A
10:02 AM81 °FBroken clouds.8 mph84%29.71 "HgN/A
10:00 AM81 °FLight rain. Broken clouds.8 mph84%29.71 "HgN/A
9:00 AM77 °FLight rain. Cloudy.1 mph94%29.71 "HgN/A
8:00 AM73 °FRain. Fog.1 mph100%29.74 "Hg1 mi
7:00 AM73 °FRain. Fog.5 mph100%29.74 "Hg1 mi
6:00 AM73 °FRain. Fog.5 mph94%29.77 "Hg2 mi
5:00 AM73 °FRain. Fog.5 mph94%29.77 "Hg2 mi
Weather by CustomWeather, © 2014

See weather overviewHow to use our weather pages